Fremont, MI

12:59 AM EDT on September 16, 2019 (GMT -0400)
Fremont

Weather History for KFFX - June, 2019

Change the Weather History Date:

Friday, June 7, 2019

  Actual Average (KMKG) Record (KMKG)
Temperature  
Mean Temperature 68 °F -  
Max Temperature 84 °F 75 °F 89 °F (2011)
Min Temperature 53 °F 53 °F 37 °F (1958)
Cooling Degree Days 4    
Growing Degree Days 18 (Base 50)    
Moisture  
Dew Point 47 °F    
Average Humidity 46    
Maximum Humidity 85    
Minimum Humidity 23    
Precipitation  
Precipitation 0.00 in - - ()
Sea Level Pressure  
Sea Level Pressure 29.99 in    
Wind  
Wind Speed 4 mph ()    
Max Wind Speed 13 mph    
Max Gust Speed 17 mph    
Visibility 9.8 miles    
Events      
Averages and records for this station are not official NWS values.
T = Trace of Precipitation, MM = Missing Value Source: Averaged Metar Reports

Daily Weather History Graph

Daily Weather History Graph

Search for Another Location

Airport or City:

Astronomy

Jun. 07, 2019 Rise Set
Actual Time 6:03 AM EDT 9:22 PM EDT
Civil Twilight 5:28 AM EDT 9:57 PM EDT
Nautical Twilight 4:42 AM EDT 10:43 PM EDT
Astronomical Twilight 3:46 AM EDT 11:40 PM EDT
Moon 10:22 AM EDT (6/7) 12:37 AM EDT (6/7)
Length of Visible Light 16h 29m
Length of Day
15h 18m
Waxing Crescent, 22% of the Moon is Illuminated
Jun 7
Waxing Crescent
Jun 10
First Quarter
Jun 17
Full
Jun 25
Last Quarter
Jul 2
New

Hourly Weather History & Observations

Time (EDT) Temp. Dew Point Humidity Pressure Visibility Wind Dir Wind Speed Gust Speed Precip Events Conditions
12:18 AM 59.2 °F 52.7 °F 79% 29.95 in 10.0 mi Calm Calm - N/A   Clear
12:36 AM 59.9 °F 51.6 °F 74% 29.95 in 10.0 mi Calm Calm - N/A   Clear
12:55 AM 58.8 °F 51.4 °F 76% 29.95 in 10.0 mi Calm Calm - N/A   Clear
1:15 AM 61.0 °F 49.3 °F 65% 29.95 in 10.0 mi Calm Calm - N/A   Clear
1:16 AM 61.0 °F 49.3 °F 65% 29.95 in 10.0 mi Calm Calm - N/A   Clear
1:39 AM 59.0 °F 50.0 °F 72% 29.95 in 10.0 mi NE 3.5 mph - N/A   Clear
1:57 AM 58.8 °F 49.8 °F 72% 29.95 in 10.0 mi ENE 3.5 mph - N/A   Clear
2:16 AM 58.3 °F 49.5 °F 72% 29.95 in 10.0 mi ENE 3.5 mph - N/A   Clear
2:35 AM 59.7 °F 50.0 °F 70% 29.95 in 10.0 mi ENE 3.5 mph - N/A   Clear
2:55 AM 58.6 °F 50.0 °F 73% 29.95 in 10.0 mi Calm Calm - N/A   Clear
3:18 AM 56.5 °F 50.5 °F 80% 29.95 in 10.0 mi Calm Calm - N/A   Clear
3:36 AM 57.2 °F 50.4 °F 78% 29.95 in 10.0 mi East 3.5 mph - N/A   Clear
3:55 AM 58.1 °F 50.0 °F 74% 29.95 in 10.0 mi Calm Calm - N/A   Clear
3:56 AM 57.9 °F 50.0 °F 75% 29.95 in 10.0 mi Calm Calm - N/A   Clear
4:15 AM 57.0 °F 50.2 °F 78% 29.95 in 10.0 mi East 5.8 mph - N/A   Clear
4:39 AM 58.5 °F 50.4 °F 74% 29.95 in 10.0 mi Calm Calm - N/A   Clear
4:57 AM 58.5 °F 49.1 °F 71% 29.95 in 10.0 mi ESE 3.5 mph - N/A   Clear
5:15 AM 57.6 °F 49.5 °F 74% 29.96 in 10.0 mi ESE 3.5 mph - N/A   Clear
5:35 AM 57.2 °F 49.5 °F 75% 29.96 in 10.0 mi SE 3.5 mph - N/A   Clear
5:36 AM 57.2 °F 49.5 °F 75% 29.96 in 10.0 mi SE 3.5 mph - N/A   Clear
5:55 AM 55.6 °F 49.1 °F 79% 29.97 in 10.0 mi Calm Calm - N/A   Clear
6:18 AM 54.5 °F 48.6 °F 80% 29.97 in 10.0 mi Calm Calm - N/A   Clear
6:36 AM 53.2 °F 48.7 °F 85% 29.98 in 10.0 mi Calm Calm - N/A   Clear
6:55 AM 57.0 °F 50.0 °F 77% 29.98 in 10.0 mi ENE 3.5 mph - N/A   Clear
7:15 AM 59.2 °F 51.4 °F 75% 29.99 in 10.0 mi Calm Calm - N/A   Clear
7:39 AM 61.2 °F 50.7 °F 69% 29.99 in 10.0 mi ENE 3.5 mph - N/A   Clear
7:57 AM 62.8 °F 50.7 °F 65% 30.00 in 10.0 mi ENE 6.9 mph - N/A   Clear
8:15 AM 63.9 °F 50.7 °F 62% 30.00 in 10.0 mi East 8.1 mph - N/A   Clear
8:35 AM 64.8 °F 51.4 °F 62% 30.01 in 10.0 mi ENE 6.9 mph - N/A   Clear
8:55 AM 66.2 °F 52.9 °F 62% 30.01 in 10.0 mi East 6.9 mph - N/A   Clear
9:18 AM 68.5 °F 54.5 °F 61% 30.01 in 10.0 mi East 5.8 mph - N/A   Clear
9:36 AM 69.8 °F 54.5 °F 58% 30.01 in 10.0 mi ENE 5.8 mph - N/A   Clear
9:55 AM 70.7 °F 55.4 °F 58% 30.02 in 10.0 mi East 4.6 mph - N/A   Clear
9:56 AM 70.9 °F 55.6 °F 58% 30.02 in 10.0 mi East 4.6 mph - N/A   Clear
10:15 AM 72.3 °F 56.8 °F 58% 30.02 in 10.0 mi East 5.8 mph - N/A   Clear
10:39 AM 74.3 °F 55.8 °F 52% 30.02 in 10.0 mi East 6.9 mph - N/A   Clear
10:57 AM 75.2 °F 52.9 °F 46% 30.02 in 10.0 mi East 4.6 mph - N/A   Clear
11:15 AM 77.0 °F 50.9 °F 40% 30.02 in 10.0 mi ESE 8.1 mph - N/A   Clear
11:35 AM 77.5 °F 50.5 °F 39% 30.02 in 10.0 mi East 8.1 mph - N/A   Clear
11:36 AM 77.5 °F 50.7 °F 39% 30.02 in 10.0 mi East 9.2 mph - N/A   Clear
11:55 AM 78.3 °F 52.2 °F 40% 30.02 in 10.0 mi SE 6.9 mph - N/A   Clear
12:00 PM 78.3 °F 51.1 °F 39% 30.02 in 10.0 mi ESE 8.1 mph - N/A   Clear
12:18 PM 79.5 °F 48.4 °F 33% 30.03 in 10.0 mi ESE 9.2 mph - N/A   Clear
12:36 PM 80.2 °F 46.2 °F 30% 30.02 in 10.0 mi East 8.1 mph - N/A   Clear
12:55 PM 80.6 °F 46.4 °F 30% 30.02 in 10.0 mi ESE 4.6 mph - N/A   Clear
12:56 PM 80.8 °F 46.8 °F 30% 30.02 in 10.0 mi ESE 4.6 mph - N/A   Clear
1:15 PM 81.0 °F 46.0 °F 29% 30.01 in 10.0 mi East 11.5 mph - N/A   Clear
1:16 PM 81.3 °F 45.9 °F 29% 30.01 in 10.0 mi East 10.4 mph - N/A   Clear
1:39 PM 81.1 °F 45.5 °F 28% 30.01 in 10.0 mi East 9.2 mph - N/A   Clear
1:57 PM 82.0 °F 45.7 °F 28% 30.01 in 10.0 mi ENE 5.8 mph - N/A   Clear
2:15 PM 82.0 °F 44.4 °F 27% 30.00 in 10.0 mi East 9.2 mph - N/A   Clear
2:35 PM 82.2 °F 44.1 °F 26% 30.00 in 7.0 mi SE 6.9 mph - N/A   Clear
2:36 PM 82.2 °F 44.1 °F 26% 30.00 in 7.0 mi SE 8.1 mph - N/A   Clear
2:55 PM 83.1 °F 45.5 °F 27% 30.00 in 7.0 mi East 6.9 mph - N/A   Clear
2:59 PM 83.3 °F 45.5 °F 27% 30.00 in 10.0 mi East 8.1 mph - N/A   Clear
3:18 PM 83.5 °F 44.2 °F 25% 30.00 in 10.0 mi East 10.4 mph - N/A   Clear
3:36 PM 83.5 °F 44.6 °F 25% 29.99 in 10.0 mi ENE 9.2 mph 17.3 mph N/A   Clear
3:55 PM 83.7 °F 43.7 °F 24% 29.99 in 7.0 mi East 10.4 mph - N/A   Clear
4:15 PM 83.3 °F 44.6 °F 26% 29.99 in 5.0 mi ESE 8.1 mph - N/A   Haze
4:38 PM 84.0 °F 44.8 °F 25% 29.99 in 10.0 mi East 12.7 mph 17.3 mph N/A   Scattered Clouds
4:56 PM 82.9 °F 45.9 °F 27% 29.99 in 7.0 mi East 10.4 mph - N/A   Scattered Clouds
5:15 PM 83.7 °F 45.7 °F 26% 29.99 in 10.0 mi ENE 10.4 mph - N/A   Scattered Clouds
5:16 PM 83.7 °F 45.3 °F 26% 29.99 in 10.0 mi ENE 10.4 mph - N/A   Scattered Clouds
5:35 PM 82.8 °F 45.0 °F 26% 29.99 in 10.0 mi ESE 9.2 mph - N/A   Clear
5:59 PM 82.9 °F 45.0 °F 26% 29.98 in 10.0 mi East 8.1 mph - N/A   Clear
6:17 PM 82.2 °F 43.3 °F 25% 29.98 in 10.0 mi ESE 8.1 mph - N/A   Clear
6:35 PM 81.9 °F 43.5 °F 26% 29.99 in 10.0 mi ESE 9.2 mph - N/A   Clear
6:36 PM 81.9 °F 43.3 °F 26% 29.99 in 10.0 mi East 8.1 mph - N/A   Clear
6:55 PM 81.3 °F 42.4 °F 25% 29.99 in 10.0 mi East 9.2 mph 16.1 mph N/A   Clear
6:56 PM 81.3 °F 42.3 °F 25% 29.99 in 10.0 mi ESE 10.4 mph 16.1 mph N/A   Clear
7:15 PM 80.6 °F 40.8 °F 24% 29.99 in 10.0 mi East 10.4 mph 17.3 mph N/A   Clear
7:20 PM 80.6 °F 40.8 °F 24% 29.99 in 10.0 mi East 9.2 mph 17.3 mph N/A   Clear
7:38 PM 79.7 °F 38.8 °F 23% 30.00 in 10.0 mi ESE 10.4 mph - N/A   Clear
7:56 PM 79.0 °F 39.0 °F 24% 30.00 in 10.0 mi ESE 6.9 mph - N/A   Clear
8:15 PM 77.9 °F 38.7 °F 24% 30.00 in 10.0 mi East 5.8 mph - N/A   Clear
8:35 PM 76.8 °F 38.3 °F 25% 30.01 in 10.0 mi ESE 5.8 mph - N/A   Clear
8:36 PM 76.6 °F 38.3 °F 25% 30.01 in 10.0 mi ESE 4.6 mph - N/A   Clear
8:59 PM 74.7 °F 38.8 °F 27% 30.01 in 10.0 mi ESE 4.6 mph - N/A   Clear
9:17 PM 73.6 °F 38.1 °F 28% 30.01 in 10.0 mi East 3.5 mph - N/A   Clear
9:35 PM 72.5 °F 37.4 °F 28% 30.01 in 10.0 mi East 4.6 mph - N/A   Clear
9:36 PM 72.3 °F 37.6 °F 28% 30.01 in 10.0 mi East 4.6 mph - N/A   Clear
9:55 PM 70.9 °F 37.0 °F 29% 30.02 in 10.0 mi East 3.5 mph - N/A   Clear
10:15 PM 70.7 °F 37.8 °F 30% 30.03 in 10.0 mi East 5.8 mph - N/A   Clear
10:19 PM 70.7 °F 38.1 °F 30% 30.03 in 10.0 mi East 4.6 mph - N/A   Clear
10:38 PM 67.3 °F 39.9 °F 37% 30.04 in 10.0 mi East 4.6 mph - N/A   Clear
10:56 PM 66.6 °F 42.1 °F 41% 30.04 in 10.0 mi East 5.8 mph - N/A   Clear
11:15 PM 66.2 °F 44.2 °F 45% 30.04 in 10.0 mi East 5.8 mph - N/A   Clear
11:35 PM 66.2 °F 44.8 °F 46% 30.05 in 10.0 mi East 3.5 mph - N/A   Clear
11:36 PM 66.2 °F 44.8 °F 46% 30.05 in 10.0 mi East 4.6 mph - N/A   Clear
11:59 PM 65.8 °F 45.5 °F 48% 30.05 in 10.0 mi East 4.6 mph - N/A   Clear